Tracking 35275 objects as of 8-Sep-2026
HD Live streaming from Space Station
objects crossing your sky now

STARLINK-33863

Track STARLINK-33863 now!
10-day predictions
STARLINK-33863 is classified as:


NORAD ID: 63864
Int'l Code: 2025-094A
Launch date: May 10, 2025
Source: United States (US)
Launch site: AIR FORCE WESTERN TEST RANGE (AFWTR)
Your satellite tracking list
Your tracking list is empty




NASA's NSSDC Master Catalog

Two Line Element Set (TLE):
1 63864U 25094A   26251.58335648  .00079088  00000-0  27299-2 0  9998
2 63864  70.0001 132.6403 0003028 262.5652 184.4162 15.29542961  5776
Source of the keplerian elements: AFSPC